PST,Max TemperatureF,Mean TemperatureF,Min TemperatureF,Max Dew PointF,MeanDew PointF,Min DewpointF,Max Humidity, Mean Humidity, Min Humidity, Max Sea Level PressureIn, Mean Sea Level PressureIn, Min Sea Level PressureIn, Max VisibilityMiles, Mean VisibilityMiles, Min VisibilityMiles, Max Wind SpeedMPH, Mean Wind SpeedMPH, Max Gust SpeedMPH,PrecipitationIn, CloudCover, Events, WindDirDegrees
2012-12-1,81,72,63,63,60,57,91,63,47,30.19,30.13,30.08,10,6,0,14,10,,0.00,7,Fog-Rain,238
2012-12-2,82,72,61,63,60,55,100,72,47,30.16,30.11,30.07,10,5,0,16,8,22,0.07,7,Rain,240
2012-12-3,75,67,59,64,55,50,100,72,46,30.18,30.13,30.09,10,5,0,16,12,,0.12,5,Fog-Rain,275
2012-12-4,72,62,53,57,54,51,100,71,48,30.24,30.18,30.15,10,9,7,18,10,,0.00,3,,296
2012-12-5,72,64,57,61,58,53,100,80,61,30.14,30.07,30.00,10,4,0,29,22,38,0.00,4,Fog-Rain,292
2012-12-6,75,67,59,61,57,54,100,85,63,29.99,29.94,29.88,7,3,0,29,21,37,0.00,5,Rain,302
2012-12-7,73,64,55,57,53,46,98,65,38,29.97,29.93,29.90,10,7,0,12,8,,0.00,1,,293
2012-12-8,79,67,55,56,51,45,82,59,42,29.97,29.93,29.90,10,6,0,12,7,,0.00,2,,299
2012-12-9,73,64,54,57,52,48,94,69,49,30.12,30.02,29.94,10,7,2,9,3,,0.00,3,,64
2012-12-10,73,62,52,58,50,32,98,73,21,30.16,30.09,30.04,10,5,0,10,2,,0.00,3,Fog,297
2012-12-11,73,63,53,57,50,38,84,56,29,30.04,29.98,29.94,10,9,7,14,8,16,0.00,3,,258
2012-12-12,77,66,54,59,52,48,93,60,41,29.96,29.88,29.83,10,8,2,14,5,,0.01,8,Rain,241
2012-12-13,66,60,55,52,44,39,67,53,42,29.84,29.80,29.75,10,9,7,23,16,29,0.00,3,Rain,291
2012-12-14,64,58,51,49,44,37,92,61,44,29.96,29.90,29.77,10,7,3,20,13,26,0.10,6,Rain,22
2012-12-15,66,58,51,48,46,42,88,65,47,30.09,30.02,29.94,10,9,7,21,12,28,0.00,5,Rain,322
2012-12-16,71,62,54,54,51,47,100,75,45,30.14,30.08,30.05,10,3,0,18,10,,0.08,8,Rain,94
2012-12-17,75,64,52,56,53,51,100,69,43,30.17,30.11,29.99,10,5,0,13,7,,0.00,6,Fog-Rain,325
2012-12-18,72,64,55,55,48,31,88,59,39,30.07,29.94,29.89,10,7,1,33,15,47,0.12,5,Rain,290
2012-12-19,64,56,48,39,34,30,66,47,28,30.23,30.18,30.07,10,9,7,17,12,29,0.00,0,,344
2012-12-20,68,58,49,45,38,21,76,51,20,30.20,30.14,30.07,10,9,7,12,7,,0.00,0,,352
2012-12-21,73,59,45,48,43,28,100,58,28,30.12,30.07,30.02,10,9,7,15,9,,0.00,1,,272
2012-12-22,77,62,48,56,52,43,100,57,37,30.16,30.12,30.06,10,6,0,12,6,,0.00,6,Fog,210
2012-12-23,75,66,56,56,52,48,93,62,48,30.21,30.15,30.10,10,6,0,12,6,,0.04,5,,258
2012-12-24,72,64,56,59,54,48,100,79,49,30.11,30.07,30.00,10,6,0,26,15,30,0.02,4,Fog-Rain,262
2012-12-25,70,62,55,54,51,44,82,63,49,30.10,30.03,29.97,10,10,8,13,7,,0.00,3,,60
2012-12-26,68,60,53,54,48,42,83,64,51,30.04,29.98,29.93,10,7,0,29,18,36,0.01,4,,282
2012-12-27,60,56,52,45,43,39,77,61,51,30.09,30.03,29.99,10,9,7,31,26,41,0.00,2,,304
2012-12-28,66,57,48,47,42,37,74,55,43,30.15,30.09,30.06,10,9,7,15,8,,0.00,1,,259
2012-12-29,71,62,54,48,44,39,79,55,36,30.06,30.01,29.96,10,7,1,16,7,16,0.46,4,Rain,264
2012-12-30,63,56,48,45,42,39,80,59,46,30.08,29.99,29.93,10,9,7,23,13,30,0.00,2,,304
2012-12-31,63,54,46,43,40,37,71,53,41,30.22,30.17,30.09,10,9,7,15,10,,0.00,1,,315